Simultaneous Nadir Overpasses (SNOs) Predictions

Prediction of SNOs between METOP-B and NOAA-19 Satellite Orbit:

Table of predicted SNOs for the next 14.0 days since TLE Epoch: 1/8/2013
Index Date (METOP-B) Time (METOP-B) Lat,Lon (METOP-B) SZA (METOP-B ) Date (NOAA-19) Time (NOAA-19) Lat,Lon (NOAA-19) SZA (NOAA-19 ) Distance(km) Time Diff (sec)
1 01/14/2013 21:02:54 -73.78, 38.64 85.02 01/14/2013 21:01:46 -73.77, 36.06 84.91 80.21 68
2 01/14/2013 21:53:46 73.18,-155.40 94.44 01/14/2013 21:52:43 73.21,-155.41 94.48 3.36 63
3 01/14/2013 22:44:28 -73.16, 11.89 85.59 01/14/2013 22:43:39 -73.19, 11.89 85.55 3.02 49
4 01/14/2013 23:35:08 73.16, 179.22 94.41 01/14/2013 23:34:47 73.17, 179.16 94.42 2.35 21
5 01/15/2013 00:25:50 -73.14, -13.49 85.62 01/15/2013 00:25:43 -73.15, -13.54 85.61 1.64 7
6
